Year,Month,Day,Hour,Minute,Value (Times are PST for temperature in C)
2011,03,25,00,00,6.70
2011,03,25,00,01,6.70
2011,03,25,00,02,6.70
2011,03,25,00,03,6.70
2011,03,25,00,04,6.70
2011,03,25,00,05,6.70
2011,03,25,00,06,6.70
2011,03,25,00,07,6.70
2011,03,25,00,08,6.70
2011,03,25,00,09,6.70
2011,03,25,00,10,6.70
2011,03,25,00,11,6.70
2011,03,25,00,12,6.70
2011,03,25,00,13,6.70
2011,03,25,00,14,6.70
2011,03,25,00,15,6.70
2011,03,25,00,16,6.70
2011,03,25,00,17,6.70
2011,03,25,00,18,6.80
2011,03,25,00,19,6.80
2011,03,25,00,20,6.80
2011,03,25,00,21,6.80
2011,03,25,00,22,6.80
2011,03,25,00,23,6.80
2011,03,25,00,24,6.80
2011,03,25,00,25,6.80
2011,03,25,00,26,6.90
2011,03,25,00,27,6.90
2011,03,25,00,28,6.90
2011,03,25,00,29,7.00
2011,03,25,00,30,7.00
2011,03,25,00,31,7.10
2011,03,25,00,32,7.10
2011,03,25,00,33,7.10
2011,03,25,00,34,7.10
2011,03,25,00,35,7.20
2011,03,25,00,36,7.20
2011,03,25,00,37,7.20
2011,03,25,00,38,7.20
2011,03,25,00,39,7.20
2011,03,25,00,40,7.20
2011,03,25,00,41,7.20
2011,03,25,00,42,7.20
2011,03,25,00,43,7.20
2011,03,25,00,44,7.20
2011,03,25,00,45,7.20
2011,03,25,00,46,7.20
2011,03,25,00,47,7.20
2011,03,25,00,48,7.20
2011,03,25,00,49,7.20
2011,03,25,00,50,7.20
2011,03,25,00,51,7.20
2011,03,25,00,52,7.20
2011,03,25,00,53,7.20
2011,03,25,00,54,7.20
2011,03,25,00,55,7.20
2011,03,25,00,56,7.20
2011,03,25,00,57,7.20
2011,03,25,00,58,7.20
2011,03,25,00,59,7.20
2011,03,25,01,00,7.20
2011,03,25,01,01,7.20
2011,03,25,01,02,7.20
2011,03,25,01,03,7.20
2011,03,25,01,04,7.20
2011,03,25,01,05,7.20
2011,03,25,01,06,7.20
2011,03,25,01,07,7.20
2011,03,25,01,08,7.20
2011,03,25,01,09,7.20
2011,03,25,01,10,7.20
2011,03,25,01,11,7.10
2011,03,25,01,12,7.10
2011,03,25,01,13,7.10
2011,03,25,01,14,7.10
2011,03,25,01,15,7.10
2011,03,25,01,16,7.10
2011,03,25,01,17,7.10
2011,03,25,01,18,7.10
2011,03,25,01,19,7.00
2011,03,25,01,20,7.00
2011,03,25,01,21,7.00
2011,03,25,01,22,7.00
2011,03,25,01,23,7.00
2011,03,25,01,24,6.90
2011,03,25,01,25,6.90
2011,03,25,01,26,6.90
2011,03,25,01,27,6.90
2011,03,25,01,28,6.90
2011,03,25,01,29,6.90
2011,03,25,01,30,6.90
2011,03,25,01,31,6.90
2011,03,25,01,32,6.90
2011,03,25,01,33,6.90
2011,03,25,01,34,6.90
2011,03,25,01,35,6.90
2011,03,25,01,36,6.90
2011,03,25,01,37,6.80
2011,03,25,01,38,6.80
2011,03,25,01,39,6.80
2011,03,25,01,40,6.80
2011,03,25,01,41,6.80
2011,03,25,01,42,6.80
2011,03,25,01,43,6.80
2011,03,25,01,44,6.80
2011,03,25,01,45,6.70
2011,03,25,01,46,6.70
2011,03,25,01,47,6.70
2011,03,25,01,48,6.70
2011,03,25,01,49,6.70
2011,03,25,01,50,6.70
2011,03,25,01,51,6.70
2011,03,25,01,52,6.70
2011,03,25,01,53,6.70
2011,03,25,01,54,6.70
2011,03,25,01,55,6.70
2011,03,25,01,56,6.70
2011,03,25,01,57,6.70
2011,03,25,01,58,6.70
2011,03,25,01,59,6.70
2011,03,25,02,00,6.70
2011,03,25,02,01,6.70
2011,03,25,02,02,6.70
2011,03,25,02,03,6.70
2011,03,25,02,04,6.70
2011,03,25,02,05,6.70
2011,03,25,02,06,6.70
2011,03,25,02,07,6.60
2011,03,25,02,08,6.60
2011,03,25,02,09,6.60
2011,03,25,02,10,6.60
2011,03,25,02,11,6.60
2011,03,25,02,12,6.60
2011,03,25,02,13,6.60
2011,03,25,02,14,6.60
2011,03,25,02,15,6.60
2011,03,25,02,16,6.60
2011,03,25,02,17,6.60
2011,03,25,02,18,6.60
2011,03,25,02,19,6.60
2011,03,25,02,20,6.60
2011,03,25,02,21,6.60
2011,03,25,02,22,6.60
2011,03,25,02,23,6.60
2011,03,25,02,24,6.60
2011,03,25,02,25,6.60
2011,03,25,02,26,6.60
2011,03,25,02,27,6.60
2011,03,25,02,28,6.60
2011,03,25,02,29,6.60
2011,03,25,02,30,6.60
2011,03,25,02,31,6.60
2011,03,25,02,32,6.60
2011,03,25,02,33,6.60
2011,03,25,02,34,6.60
2011,03,25,02,35,6.60
2011,03,25,02,36,6.60
2011,03,25,02,37,6.60
2011,03,25,02,38,6.60
2011,03,25,02,39,6.60
2011,03,25,02,40,6.60
2011,03,25,02,41,6.60
2011,03,25,02,42,6.60
2011,03,25,02,43,6.60
2011,03,25,02,44,6.60
2011,03,25,02,45,6.60
2011,03,25,02,46,6.60
2011,03,25,02,47,6.60
2011,03,25,02,48,6.60
2011,03,25,02,49,6.50
2011,03,25,02,50,6.50
2011,03,25,02,51,6.50
2011,03,25,02,52,6.50
2011,03,25,02,53,6.50
2011,03,25,02,54,6.50
2011,03,25,02,55,6.50
2011,03,25,02,56,6.50
2011,03,25,02,57,6.50
2011,03,25,02,58,6.50
2011,03,25,02,59,6.50
2011,03,25,03,00,6.50
2011,03,25,03,01,6.50
2011,03,25,03,02,6.50
2011,03,25,03,03,6.50
2011,03,25,03,04,6.50
2011,03,25,03,05,6.50
2011,03,25,03,06,6.50
2011,03,25,03,07,6.50
2011,03,25,03,08,6.50
2011,03,25,03,09,6.50
2011,03,25,03,10,6.50
2011,03,25,03,11,6.50
2011,03,25,03,12,6.50
2011,03,25,03,13,6.50
2011,03,25,03,14,6.50
2011,03,25,03,15,6.50
2011,03,25,03,16,6.50
2011,03,25,03,17,6.50
2011,03,25,03,18,6.50
2011,03,25,03,19,6.50
2011,03,25,03,20,6.40
2011,03,25,03,21,6.40
2011,03,25,03,22,6.40
2011,03,25,03,23,6.40
2011,03,25,03,24,6.40
2011,03,25,03,25,6.40
2011,03,25,03,26,6.40
2011,03,25,03,27,6.40
2011,03,25,03,28,6.40
2011,03,25,03,29,6.40
2011,03,25,03,30,6.40
2011,03,25,03,31,6.40
2011,03,25,03,32,6.40
2011,03,25,03,33,6.40
2011,03,25,03,34,6.40
2011,03,25,03,35,6.40
2011,03,25,03,36,6.40
2011,03,25,03,37,6.40
2011,03,25,03,38,6.30
2011,03,25,03,39,6.30
2011,03,25,03,40,6.30
2011,03,25,03,41,6.30
2011,03,25,03,42,6.30
2011,03,25,03,43,6.30
2011,03,25,03,44,6.30
2011,03,25,03,45,6.20
2011,03,25,03,46,6.20
2011,03,25,03,47,6.20
2011,03,25,03,48,6.20
2011,03,25,03,49,6.10
2011,03,25,03,50,6.10
2011,03,25,03,51,6.10
2011,03,25,03,52,6.00
2011,03,25,03,53,6.00
2011,03,25,03,54,6.00
2011,03,25,03,55,5.90
2011,03,25,03,56,5.90
2011,03,25,03,57,5.90
2011,03,25,03,58,5.90
2011,03,25,03,59,5.80
2011,03,25,04,00,5.80
2011,03,25,04,01,5.80
2011,03,25,04,02,5.80
2011,03,25,04,03,5.80
2011,03,25,04,04,5.80
2011,03,25,04,05,5.70
2011,03,25,04,06,5.70
2011,03,25,04,07,5.70
2011,03,25,04,08,5.70
2011,03,25,04,09,5.70
2011,03,25,04,10,5.70
2011,03,25,04,11,5.70
2011,03,25,04,12,5.70
2011,03,25,04,13,5.70
2011,03,25,04,14,5.70
2011,03,25,04,15,5.70
2011,03,25,04,16,5.70
2011,03,25,04,17,5.70
2011,03,25,04,18,5.70
2011,03,25,04,19,5.70
2011,03,25,04,20,5.70
2011,03,25,04,21,5.70
2011,03,25,04,22,5.70
2011,03,25,04,23,5.70
2011,03,25,04,24,5.60
2011,03,25,04,25,5.60
2011,03,25,04,26,5.60
2011,03,25,04,27,5.60
2011,03,25,04,28,5.60
2011,03,25,04,29,5.50
2011,03,25,04,30,5.50
2011,03,25,04,31,5.50
2011,03,25,04,32,5.40
2011,03,25,04,33,5.40
2011,03,25,04,34,5.40
2011,03,25,04,35,5.40
2011,03,25,04,36,5.30
2011,03,25,04,37,5.30
2011,03,25,04,38,5.30
2011,03,25,04,39,5.30
2011,03,25,04,40,5.30
2011,03,25,04,41,5.30
2011,03,25,04,42,5.20
2011,03,25,04,43,5.20
2011,03,25,04,44,5.20
2011,03,25,04,45,5.20
2011,03,25,04,46,5.20
2011,03,25,04,47,5.10
2011,03,25,04,48,5.10
2011,03,25,04,49,5.10
2011,03,25,04,50,5.20
2011,03,25,04,51,5.20
2011,03,25,04,52,5.20
2011,03,25,04,53,5.10
2011,03,25,04,54,5.20
2011,03,25,04,55,5.10
2011,03,25,04,56,5.10
2011,03,25,04,57,5.10
2011,03,25,04,58,5.10
2011,03,25,04,59,5.10
2011,03,25,05,00,5.10
2011,03,25,05,01,5.10
2011,03,25,05,02,5.20
2011,03,25,05,03,5.20
2011,03,25,05,04,5.20
2011,03,25,05,05,5.10
2011,03,25,05,06,5.10
2011,03,25,05,07,5.10
2011,03,25,05,08,5.10
2011,03,25,05,09,5.10
2011,03,25,05,10,5.10
2011,03,25,05,11,5.10
2011,03,25,05,12,5.10
2011,03,25,05,13,5.10
2011,03,25,05,14,5.10
2011,03,25,05,15,5.10
2011,03,25,05,16,5.10
2011,03,25,05,17,5.10
2011,03,25,05,18,5.10
2011,03,25,05,19,5.10
2011,03,25,05,20,5.00
2011,03,25,05,21,5.00
2011,03,25,05,22,5.00
2011,03,25,05,23,5.00
2011,03,25,05,24,5.00
2011,03,25,05,25,5.00
2011,03,25,05,26,5.00
2011,03,25,05,27,5.00
2011,03,25,05,28,5.00
2011,03,25,05,29,5.00
2011,03,25,05,30,5.00
2011,03,25,05,31,5.00
2011,03,25,05,32,5.00
2011,03,25,09,12,5.70
2011,03,25,09,13,5.70
2011,03,25,09,14,5.70
2011,03,25,09,15,5.70
2011,03,25,09,16,5.70
2011,03,25,09,17,5.70
2011,03,25,09,18,5.70
2011,03,25,09,19,5.70
2011,03,25,09,20,5.70
2011,03,25,09,21,5.70
2011,03,25,09,22,5.70
2011,03,25,09,23,5.70
2011,03,25,09,24,5.70
2011,03,25,09,25,5.60
2011,03,25,09,26,5.60
2011,03,25,09,27,5.60
2011,03,25,09,28,5.60
2011,03,25,09,29,5.60
2011,03,25,09,30,5.60
2011,03,25,09,31,5.60
2011,03,25,09,32,5.60
2011,03,25,09,33,5.60
2011,03,25,09,34,5.60
2011,03,25,09,35,5.60
2011,03,25,09,36,5.60
2011,03,25,09,37,5.70
2011,03,25,09,38,5.70
2011,03,25,09,39,5.70
2011,03,25,09,40,5.70
2011,03,25,09,41,5.70
2011,03,25,09,42,5.70
2011,03,25,09,43,5.60
2011,03,25,09,44,5.60
2011,03,25,09,45,5.60
2011,03,25,09,46,5.60
2011,03,25,09,47,5.60
2011,03,25,09,48,5.60
2011,03,25,09,49,5.60
2011,03,25,09,50,5.60
2011,03,25,09,51,5.60
2011,03,25,09,52,5.60
2011,03,25,09,53,5.60
2011,03,25,09,54,5.60
2011,03,25,09,55,5.50
2011,03,25,09,56,5.50
2011,03,25,09,57,5.50
2011,03,25,09,58,5.50
2011,03,25,09,59,5.50
2011,03,25,10,00,5.50
2011,03,25,10,01,5.40
2011,03,25,10,02,5.40
2011,03,25,10,03,5.40
2011,03,25,10,04,5.40
2011,03,25,10,05,5.40
2011,03,25,10,06,5.40
2011,03,25,10,07,5.30
2011,03,25,10,08,5.30
2011,03,25,10,09,5.30
2011,03,25,10,10,5.30
2011,03,25,10,11,5.30
2011,03,25,10,12,5.30
2011,03,25,10,13,5.30
2011,03,25,10,14,5.30
2011,03,25,10,15,5.30
2011,03,25,10,16,5.30
2011,03,25,10,17,5.30
2011,03,25,10,18,5.30
2011,03,25,10,19,5.30
2011,03,25,10,20,5.30
2011,03,25,10,21,5.30
2011,03,25,10,22,5.30
2011,03,25,10,23,5.30
2011,03,25,10,24,5.20
2011,03,25,10,25,5.20
2011,03,25,10,26,5.20
2011,03,25,10,27,5.20
2011,03,25,10,28,5.20
2011,03,25,10,29,5.20
2011,03,25,10,30,5.20
2011,03,25,10,31,5.20
2011,03,25,10,32,5.20
2011,03,25,10,33,5.20
2011,03,25,10,34,5.20
2011,03,25,10,35,5.20
2011,03,25,10,36,5.20
2011,03,25,10,37,5.20
2011,03,25,10,38,5.20
2011,03,25,10,39,5.20
2011,03,25,10,40,5.20
2011,03,25,10,41,5.10
2011,03,25,10,42,5.10
2011,03,25,10,43,5.10
2011,03,25,10,44,5.10
2011,03,25,10,45,5.10
2011,03,25,10,46,5.10
2011,03,25,10,47,5.10
2011,03,25,10,48,5.10
2011,03,25,10,49,5.10
2011,03,25,10,50,5.10
2011,03,25,10,51,5.10
2011,03,25,10,52,5.10
2011,03,25,10,53,5.10
2011,03,25,10,54,5.10
2011,03,25,10,55,5.00
2011,03,25,10,56,5.00
2011,03,25,10,57,5.00
2011,03,25,10,58,5.00
2011,03,25,10,59,5.10
2011,03,25,11,00,5.10
2011,03,25,11,01,5.10
2011,03,25,11,02,5.10
2011,03,25,11,03,5.10
2011,03,25,11,04,5.10
2011,03,25,11,05,5.10
2011,03,25,11,06,5.10
2011,03,25,11,07,5.10
2011,03,25,11,08,5.10
2011,03,25,11,09,5.10
2011,03,25,11,10,5.10
2011,03,25,11,11,5.10
2011,03,25,11,12,5.10
2011,03,25,11,13,5.10
2011,03,25,11,14,5.10
2011,03,25,11,15,5.10
2011,03,25,11,16,5.10
2011,03,25,11,17,5.10
2011,03,25,11,18,5.10
2011,03,25,11,19,5.10
2011,03,25,11,20,5.10
2011,03,25,11,21,5.10
2011,03,25,11,22,5.10
2011,03,25,11,23,5.10
2011,03,25,11,24,5.10
2011,03,25,11,25,5.10
2011,03,25,11,26,5.10
2011,03,25,11,27,5.10
2011,03,25,11,28,5.10
2011,03,25,11,29,5.10
2011,03,25,11,30,5.10
2011,03,25,11,31,5.10
2011,03,25,11,32,5.10
2011,03,25,11,33,5.10
2011,03,25,11,34,5.10
2011,03,25,11,35,5.10
2011,03,25,11,36,5.10
2011,03,25,11,37,5.10
2011,03,25,11,38,5.10
2011,03,25,11,39,5.10
2011,03,25,11,40,5.10
2011,03,25,11,41,5.10
2011,03,25,11,42,5.10
2011,03,25,11,43,5.10
2011,03,25,11,44,5.10
2011,03,25,11,45,5.10
2011,03,25,11,46,5.10
2011,03,25,11,47,5.10
2011,03,25,11,48,5.10
2011,03,25,11,49,5.10
2011,03,25,11,50,5.10
2011,03,25,11,51,5.20
2011,03,25,11,52,5.20
2011,03,25,11,53,5.20
2011,03,25,11,54,5.20
2011,03,25,11,55,5.20
2011,03,25,11,56,5.20
2011,03,25,11,57,5.20
2011,03,25,11,58,5.20
2011,03,25,11,59,5.20
2011,03,25,12,00,5.20
2011,03,25,12,01,5.20
2011,03,25,12,02,5.20
2011,03,25,12,03,5.20
2011,03,25,12,04,5.20
2011,03,25,12,05,5.20
2011,03,25,12,06,5.20
2011,03,25,12,07,5.20
2011,03,25,12,08,5.20
2011,03,25,12,09,5.20
2011,03,25,12,10,5.20
2011,03,25,12,11,5.20
2011,03,25,12,12,5.20
2011,03,25,12,13,5.20
2011,03,25,12,14,5.20
2011,03,25,12,15,5.20
2011,03,25,12,16,5.20
2011,03,25,12,17,5.20
2011,03,25,12,18,5.20
2011,03,25,12,19,5.20
2011,03,25,12,20,5.20
2011,03,25,12,21,5.20
2011,03,25,12,22,5.30
2011,03,25,12,23,5.30
2011,03,25,12,24,5.30
2011,03,25,12,25,5.30
2011,03,25,12,26,5.30
2011,03,25,12,27,5.30
2011,03,25,12,28,5.30
2011,03,25,12,29,5.30
2011,03,25,12,30,5.30
2011,03,25,12,31,5.30
2011,03,25,12,32,5.30
2011,03,25,12,33,5.30
2011,03,25,12,34,5.30
2011,03,25,12,35,5.30
2011,03,25,12,36,5.30
2011,03,25,12,37,5.30
2011,03,25,12,38,5.30
2011,03,25,12,39,5.30
2011,03,25,12,40,5.30
2011,03,25,12,41,5.40
2011,03,25,12,42,5.40
2011,03,25,12,43,5.30
2011,03,25,12,44,5.30
2011,03,25,12,45,5.40
2011,03,25,12,46,5.40
2011,03,25,12,47,5.40
2011,03,25,12,48,5.40
2011,03,25,12,49,5.40
2011,03,25,12,50,5.40
2011,03,25,12,51,5.40
2011,03,25,12,52,5.40
2011,03,25,12,53,5.40
2011,03,25,12,54,5.40
2011,03,25,12,55,5.40
2011,03,25,12,56,5.40
2011,03,25,12,57,5.40
2011,03,25,12,58,5.40
2011,03,25,12,59,5.40
2011,03,25,13,00,5.40
2011,03,25,13,01,5.40
2011,03,25,13,02,5.40
2011,03,25,13,03,5.40
2011,03,25,13,04,5.40
2011,03,25,13,05,5.40
2011,03,25,13,06,5.40
2011,03,25,13,07,5.40
2011,03,25,13,08,5.40
2011,03,25,13,09,5.40
2011,03,25,13,10,5.40
2011,03,25,13,11,5.40
2011,03,25,13,12,5.40
2011,03,25,13,13,5.40
2011,03,25,13,14,5.50
2011,03,25,13,15,5.50
2011,03,25,13,16,5.50
2011,03,25,13,17,5.40
2011,03,25,13,18,5.40
2011,03,25,13,19,5.40
2011,03,25,13,20,5.50
2011,03,25,13,21,5.50
2011,03,25,13,22,5.50
2011,03,25,13,23,5.50
2011,03,25,13,24,5.50
2011,03,25,13,25,5.50
2011,03,25,13,26,5.50
2011,03,25,13,27,5.50
2011,03,25,13,28,5.50
2011,03,25,13,29,5.50
2011,03,25,13,30,5.50
2011,03,25,13,31,5.50
2011,03,25,13,32,5.50
2011,03,25,13,33,5.50
2011,03,25,13,34,5.50
2011,03,25,13,35,5.50
2011,03,25,13,36,5.50
2011,03,25,13,37,5.50
2011,03,25,13,38,5.50
2011,03,25,13,39,5.50
2011,03,25,13,40,5.50
2011,03,25,13,41,5.50
2011,03,25,13,42,5.50
2011,03,25,13,43,5.50
2011,03,25,13,44,5.50
2011,03,25,13,45,5.50
2011,03,25,13,46,5.50
2011,03,25,13,47,5.50
2011,03,25,13,48,5.50
2011,03,25,13,49,5.50
2011,03,25,13,50,5.50
2011,03,25,13,51,5.50
2011,03,25,13,52,5.60
2011,03,25,13,53,5.60
2011,03,25,13,54,5.60
2011,03,25,13,55,5.60
2011,03,25,13,56,5.60
2011,03,25,13,57,5.60
2011,03,25,13,58,5.60
2011,03,25,13,59,5.60
2011,03,25,14,00,5.60
2011,03,25,14,01,5.60
2011,03,25,14,02,5.60
2011,03,25,14,03,5.60
2011,03,25,14,04,5.60
2011,03,25,14,05,5.60
2011,03,25,14,06,5.70
2011,03,25,14,07,5.70
2011,03,25,14,08,5.70
2011,03,25,14,09,5.70
2011,03,25,14,10,5.70
2011,03,25,14,11,5.70
2011,03,25,14,12,5.70
2011,03,25,14,13,5.70
2011,03,25,14,14,5.70
2011,03,25,14,15,5.70
2011,03,25,14,16,5.70
2011,03,25,14,17,5.70
2011,03,25,14,18,5.70
2011,03,25,14,19,5.70
2011,03,25,14,20,5.70
2011,03,25,14,21,5.70
2011,03,25,14,22,5.70
2011,03,25,14,23,5.70
2011,03,25,14,24,5.70
2011,03,25,14,25,5.70
2011,03,25,14,26,5.70
2011,03,25,14,27,5.70
2011,03,25,14,28,5.70
2011,03,25,14,29,5.70
2011,03,25,14,30,5.70
2011,03,25,14,31,5.70
2011,03,25,14,32,5.70
2011,03,25,14,33,5.70
2011,03,25,14,34,5.70
2011,03,25,14,35,5.70
2011,03,25,14,36,5.70
2011,03,25,14,37,5.70
2011,03,25,14,38,5.70
2011,03,25,14,39,5.80
2011,03,25,14,40,5.80
2011,03,25,14,41,5.80
2011,03,25,14,42,5.80
2011,03,25,14,43,5.80
2011,03,25,14,44,5.80
2011,03,25,14,45,5.80
2011,03,25,14,46,5.80
2011,03,25,14,47,5.80
2011,03,25,14,48,5.80
2011,03,25,14,49,5.80
2011,03,25,14,50,5.80
2011,03,25,14,51,5.80
2011,03,25,14,52,5.80
2011,03,25,14,53,5.80
2011,03,25,14,54,5.80
2011,03,25,14,55,5.80
2011,03,25,14,56,5.80
2011,03,25,14,57,5.90
2011,03,25,14,58,5.80
2011,03,25,14,59,5.80
2011,03,25,15,00,5.80
2011,03,25,15,01,5.80
2011,03,25,15,02,5.80
2011,03,25,15,03,5.90
2011,03,25,15,04,5.90
2011,03,25,15,05,5.90
2011,03,25,15,06,5.90
2011,03,25,15,07,5.90
2011,03,25,15,08,5.90
2011,03,25,15,09,5.90
2011,03,25,15,10,5.90
2011,03,25,15,11,5.90
2011,03,25,15,12,6.00
2011,03,25,15,13,6.00
2011,03,25,15,14,6.10
2011,03,25,15,15,6.10
2011,03,25,15,16,6.10
2011,03,25,15,17,6.20
2011,03,25,15,18,6.20
2011,03,25,15,19,6.20
2011,03,25,15,20,6.20
2011,03,25,15,21,6.30
2011,03,25,15,22,6.30
2011,03,25,15,23,6.30
2011,03,25,15,24,6.40
2011,03,25,15,25,6.40
2011,03,25,15,26,6.40
2011,03,25,15,27,6.40
2011,03,25,15,28,6.50
2011,03,25,15,29,6.50
2011,03,25,15,30,6.60
2011,03,25,15,31,6.60
2011,03,25,15,32,6.70
2011,03,25,15,33,6.80
2011,03,25,15,34,6.80
2011,03,25,15,35,6.90
2011,03,25,15,36,7.00
2011,03,25,15,37,7.00
2011,03,25,15,38,7.00
2011,03,25,15,39,7.00
2011,03,25,15,40,7.00
2011,03,25,15,41,7.00
2011,03,25,15,42,7.10
2011,03,25,15,43,7.10
2011,03,25,15,44,7.10
2011,03,25,15,45,7.20
2011,03,25,15,46,7.20
2011,03,25,15,47,7.20
2011,03,25,15,48,7.20
2011,03,25,15,49,7.20
2011,03,25,15,50,7.20
2011,03,25,15,51,7.30
2011,03,25,15,52,7.40
2011,03,25,15,53,7.40
2011,03,25,15,54,7.50
2011,03,25,15,55,7.50
2011,03,25,15,56,7.50
2011,03,25,15,57,7.40
2011,03,25,15,58,7.40
2011,03,25,15,59,7.40
2011,03,25,16,00,7.40
2011,03,25,16,01,7.40
2011,03,25,16,02,7.50
2011,03,25,16,03,7.60
2011,03,25,16,04,7.60
2011,03,25,16,05,7.70
2011,03,25,16,06,7.80
2011,03,25,16,07,7.90
2011,03,25,16,08,8.10
2011,03,25,16,09,8.20
2011,03,25,16,10,8.30
2011,03,25,16,11,8.40
2011,03,25,16,12,8.40
2011,03,25,16,13,8.50
2011,03,25,16,14,8.60
2011,03,25,16,15,8.60
2011,03,25,16,16,8.60
2011,03,25,16,17,8.60
2011,03,25,16,18,8.60
2011,03,25,16,19,8.60
2011,03,25,16,20,8.60
2011,03,25,16,21,8.60
2011,03,25,16,22,8.60
2011,03,25,16,23,8.50
2011,03,25,16,24,8.60
2011,03,25,16,25,8.60
2011,03,25,16,26,8.60
2011,03,25,16,27,8.60
2011,03,25,16,28,8.60
2011,03,25,16,29,8.60
2011,03,25,16,30,8.60
2011,03,25,16,31,8.60
2011,03,25,16,32,8.60
2011,03,25,16,33,8.60
2011,03,25,16,34,8.70
2011,03,25,16,35,8.70
2011,03,25,16,36,8.80
2011,03,25,16,37,8.90
2011,03,25,16,38,9.00
2011,03,25,16,39,9.00
2011,03,25,16,40,9.00
2011,03,25,16,41,9.10
2011,03,25,16,42,9.00
2011,03,25,16,43,9.10
2011,03,25,16,44,9.00
2011,03,25,16,45,9.00
2011,03,25,16,46,9.00
2011,03,25,16,47,9.00
2011,03,25,16,48,9.00
2011,03,25,16,49,9.00
2011,03,25,16,50,9.00
2011,03,25,16,51,9.00
2011,03,25,16,52,9.00
2011,03,25,16,53,9.00
2011,03,25,16,54,9.00
2011,03,25,16,55,9.00
2011,03,25,16,56,9.10
2011,03,25,16,57,9.10
2011,03,25,16,58,9.10
2011,03,25,16,59,9.00
2011,03,25,17,00,9.10
2011,03,25,17,01,9.10
2011,03,25,17,02,9.10
2011,03,25,17,03,9.10
2011,03,25,17,04,9.20
2011,03,25,17,05,9.10
2011,03,25,17,06,9.10
2011,03,25,17,07,9.10
2011,03,25,17,08,9.00
2011,03,25,17,09,9.00
2011,03,25,17,10,8.90
2011,03,25,17,11,8.80
2011,03,25,17,12,8.80
2011,03,25,17,13,8.70
2011,03,25,17,14,8.70
2011,03,25,17,15,8.70
2011,03,25,17,16,8.60
2011,03,25,17,17,8.60
2011,03,25,17,18,8.50
2011,03,25,17,19,8.50
2011,03,25,17,20,8.40
2011,03,25,17,21,8.40
2011,03,25,17,22,8.40
2011,03,25,17,23,8.30
2011,03,25,17,24,8.30
2011,03,25,17,25,8.30
2011,03,25,17,26,8.30
2011,03,25,17,27,8.30
2011,03,25,17,28,8.30
2011,03,25,17,29,8.30
2011,03,25,17,30,8.20
2011,03,25,17,31,8.20
2011,03,25,17,32,8.20
2011,03,25,17,33,8.10
2011,03,25,17,34,8.10
2011,03,25,17,35,8.10
2011,03,25,17,36,8.10
2011,03,25,17,37,8.00
2011,03,25,17,38,8.00
2011,03,25,17,39,8.00
2011,03,25,17,40,7.90
2011,03,25,17,41,7.90
2011,03,25,17,42,7.90
2011,03,25,17,43,7.90
2011,03,25,17,44,7.90
2011,03,25,17,45,7.90
2011,03,25,17,46,8.00
2011,03,25,17,47,8.00
2011,03,25,17,48,8.00
2011,03,25,17,49,8.00
2011,03,25,17,50,8.00
2011,03,25,17,51,7.90
2011,03,25,17,52,8.00
2011,03,25,17,53,7.90
2011,03,25,17,54,7.90
2011,03,25,17,55,7.90
2011,03,25,17,56,7.90
2011,03,25,17,57,7.90
2011,03,25,17,58,7.90
2011,03,25,17,59,7.90
2011,03,25,18,00,7.80
2011,03,25,18,01,7.80
2011,03,25,18,02,7.80
2011,03,25,18,03,7.80
2011,03,25,18,04,7.80
2011,03,25,18,05,7.80
2011,03,25,18,06,7.80
2011,03,25,18,07,7.70
2011,03,25,18,08,7.70
2011,03,25,18,09,7.70
2011,03,25,18,10,7.70
2011,03,25,18,11,7.60
2011,03,25,18,12,7.60
2011,03,25,18,13,7.60
2011,03,25,18,14,7.60
2011,03,25,18,15,7.60
2011,03,25,18,16,7.50
2011,03,25,18,17,7.50
2011,03,25,18,18,7.50
2011,03,25,18,19,7.50
2011,03,25,18,20,7.50
2011,03,25,18,21,7.50
2011,03,25,18,22,7.50
2011,03,25,18,23,7.40
2011,03,25,18,24,7.40
2011,03,25,18,25,7.40
2011,03,25,18,26,7.40
2011,03,25,18,27,7.40
2011,03,25,18,28,7.40
2011,03,25,18,29,7.40
2011,03,25,18,30,7.40
2011,03,25,18,31,7.40
2011,03,25,18,32,7.40
2011,03,25,18,33,7.40
2011,03,25,18,34,7.40
2011,03,25,18,35,7.40
2011,03,25,18,36,7.40
2011,03,25,18,37,7.40
2011,03,25,18,38,7.40
2011,03,25,18,39,7.30
2011,03,25,18,40,7.30
2011,03,25,18,41,7.30
2011,03,25,18,42,7.20
2011,03,25,18,43,7.20
2011,03,25,18,44,7.10
2011,03,25,18,45,7.00
2011,03,25,18,46,6.90
2011,03,25,18,47,6.90
2011,03,25,18,48,6.80
2011,03,25,18,49,6.80
2011,03,25,18,50,6.70
2011,03,25,18,51,6.70
2011,03,25,18,52,6.60
2011,03,25,18,53,6.60
2011,03,25,18,54,6.60
2011,03,25,18,55,6.50
2011,03,25,18,56,6.40
2011,03,25,18,57,6.40
2011,03,25,18,58,6.30
2011,03,25,18,59,6.30
2011,03,25,19,00,6.20
2011,03,25,19,01,6.20
2011,03,25,19,02,6.20
2011,03,25,19,03,6.10
2011,03,25,19,04,6.10
2011,03,25,19,05,6.10
2011,03,25,19,06,6.00
2011,03,25,19,07,6.00
2011,03,25,19,08,5.90
2011,03,25,19,09,5.90
2011,03,25,19,10,5.90
2011,03,25,19,11,5.90
2011,03,25,19,12,5.80
2011,03,25,19,13,5.80
2011,03,25,19,14,5.80
2011,03,25,19,15,5.80
2011,03,25,19,16,5.70
2011,03,25,19,17,5.70
2011,03,25,19,18,5.60
2011,03,25,19,19,5.60
2011,03,25,19,20,5.60
2011,03,25,19,21,5.50
2011,03,25,19,22,5.50
2011,03,25,19,23,5.50
2011,03,25,19,24,5.40
2011,03,25,19,25,5.40
2011,03,25,19,26,5.40
2011,03,25,19,27,5.30
2011,03,25,19,28,5.30
2011,03,25,19,29,5.30
2011,03,25,19,30,5.30
2011,03,25,19,31,5.30
2011,03,25,19,32,5.30
2011,03,25,19,33,5.30
2011,03,25,19,34,5.20
2011,03,25,19,35,5.20
2011,03,25,19,36,5.20
2011,03,25,19,37,5.20
2011,03,25,19,38,5.20
2011,03,25,19,39,5.10
2011,03,25,19,40,5.10
2011,03,25,19,41,5.10
2011,03,25,19,42,5.10
2011,03,25,19,43,5.10
2011,03,25,19,44,5.10
2011,03,25,19,45,5.00
2011,03,25,19,46,5.00
2011,03,25,19,47,5.00
2011,03,25,19,48,5.00
2011,03,25,19,49,5.00
2011,03,25,19,50,4.90
2011,03,25,19,51,4.90
2011,03,25,19,52,4.90
2011,03,25,19,53,4.90
2011,03,25,19,54,4.90
2011,03,25,19,55,4.90
2011,03,25,19,56,4.90
2011,03,25,19,57,4.90
2011,03,25,19,58,4.80
2011,03,25,19,59,4.80
2011,03,25,20,00,4.80
2011,03,25,20,01,4.80
2011,03,25,20,02,4.80
2011,03,25,20,03,4.80
2011,03,25,20,04,4.80
2011,03,25,20,05,4.80
2011,03,25,20,06,4.80
2011,03,25,20,07,4.80
2011,03,25,20,08,4.70
2011,03,25,20,09,4.70
2011,03,25,20,10,4.70
2011,03,25,20,11,4.70
2011,03,25,20,12,4.70
2011,03,25,20,13,4.70
2011,03,25,20,14,4.70
2011,03,25,20,15,4.70
2011,03,25,20,16,4.70
2011,03,25,20,17,4.70
2011,03,25,20,18,4.70
2011,03,25,20,19,4.70
2011,03,25,20,20,4.70
2011,03,25,20,21,4.60
2011,03,25,20,22,4.60
2011,03,25,20,23,4.60
2011,03,25,20,24,4.60
2011,03,25,20,25,4.60
2011,03,25,20,26,4.50
2011,03,25,20,27,4.50
2011,03,25,20,28,4.40
2011,03,25,20,29,4.40
2011,03,25,20,30,4.40
2011,03,25,20,31,4.40
2011,03,25,20,32,4.40
2011,03,25,20,33,4.40
2011,03,25,20,34,4.40
2011,03,25,20,35,4.40
2011,03,25,20,36,4.30
2011,03,25,20,37,4.30
2011,03,25,20,38,4.30
2011,03,25,20,39,4.30
2011,03,25,20,40,4.30
2011,03,25,20,41,4.30
2011,03,25,20,42,4.30
2011,03,25,20,43,4.30
2011,03,25,20,44,4.20
2011,03,25,20,45,4.20
2011,03,25,20,46,4.20
2011,03,25,20,47,4.20
2011,03,25,20,48,4.20
2011,03,25,20,49,4.20
2011,03,25,20,50,4.20
2011,03,25,20,51,4.10
2011,03,25,20,52,4.10
2011,03,25,20,53,4.10
2011,03,25,20,54,4.10
2011,03,25,20,55,4.10
2011,03,25,20,56,4.10
2011,03,25,20,57,4.10
2011,03,25,20,58,4.00
2011,03,25,20,59,4.10
2011,03,25,21,00,4.10
2011,03,25,21,01,4.10
2011,03,25,21,02,4.10
2011,03,25,21,03,4.10
2011,03,25,21,04,4.10
2011,03,25,21,05,4.00
2011,03,25,21,06,4.00
2011,03,25,21,07,4.00
2011,03,25,21,08,3.90
2011,03,25,21,09,3.90
2011,03,25,21,10,3.90
2011,03,25,21,11,3.90
2011,03,25,21,12,3.90
2011,03,25,21,13,3.90
2011,03,25,21,14,3.90
2011,03,25,21,15,3.90
2011,03,25,21,16,3.90
2011,03,25,21,17,3.90
2011,03,25,21,18,3.90
2011,03,25,21,19,3.80
2011,03,25,21,20,3.90
2011,03,25,21,21,3.80
2011,03,25,21,22,3.80
2011,03,25,21,23,3.80
2011,03,25,21,24,3.80
2011,03,25,21,25,3.80
2011,03,25,21,26,3.80
2011,03,25,21,27,3.80
2011,03,25,21,28,3.80
2011,03,25,21,29,3.80
2011,03,25,21,30,3.80
2011,03,25,21,31,3.80
2011,03,25,21,32,3.80
2011,03,25,21,33,3.80
2011,03,25,21,34,3.80
2011,03,25,21,35,3.80
2011,03,25,21,36,3.80
2011,03,25,21,37,3.80
2011,03,25,21,38,3.80
2011,03,25,21,39,3.80
2011,03,25,21,40,3.80
2011,03,25,21,41,3.80
2011,03,25,21,42,3.80
2011,03,25,21,43,3.80
2011,03,25,21,44,3.80
2011,03,25,21,45,3.80